Content
SEND FEEDBACK

Daily
Averages
Monthly
Summary
Brazil

BELO HORIZONTE, MINAS GERAIS


Home > South America > Brazil > Minas Gerais
Elevation: 3008 feet     Latitude: 19 50S     Longitude: 043 56W

WEATHER
 
SELECT A DAY
Number of Records: 160,204;   Date Range: 6/30/96 - 10/18/14
 
SHARE

PRINT THIS DATA

[ ← Previous Day ]
WEATHER ALMANAC - JANUARY 3, 2013
[ Next Day → ]
[ °C ]   °F
Weather ElementAverageHighLow
Temperature76.1 °F86 °F (5:00 pm)66.2 °F (7:00 am)
Dewpoint55.4 °F60.8 °F (10:00 am)44.6 °F (5:00 pm)
Humidity50.2 %68 % (7:00 am)23 % (5:00 pm)
Barometer30.07 in30.12 in (9:00 am)30.01 in (5:00 pm)
Wind Speed5.6 mph8.1 mph (6:00 am)
Weather ElementAverage
Visibility6.2 mi
Wind DirectionSE (130.4 °)

Weather ElementTotal
Precipitation---
Cooling Degree Days11.1 (Base 65)
Growing Degree Days26.1 (Base 50)
Averaged from 23 records on January 3, 2013
WEATHER CONDITIONS BREAKOUT
WIND DIRECTION BREAKOUT
WEATHER BY HOUR - JANUARY 3, 2013
[ °C ]   °F
Local TimeTemperatureDewpointHumidityBarometerVisibilityWind DirectionWind SpeedGust SpeedPrecipitationEventsConditions
1:00 AM73.4 °F51.8 °F47 %30.06 inSSE (150°)5.8 mphClear
2:00 AM71.6 °F53.6 °F53 %30.04 inSE (130°)6.9 mphClear
3:00 AM69.8 °F53.6 °F56 %30.04 inEast (100°)6.9 mphClear
4:00 AM69.8 °F53.6 °F56 %30.04 in6.2 miSSE (150°)5.8 mphPartly Cloudy
5:00 AM68.0 °F55.4 °F64 %30.04 in6.2 miSE (140°)6.9 mphPartly Cloudy
6:00 AM68.0 °F53.6 °F60 %30.06 inSE (140°)8.1 mphClear
7:00 AM66.2 °F55.4 °F68 %30.09 inSSW (200°)4.6 mphClear
8:00 AM69.8 °F57.2 °F64 %30.09 inSouth (190°)5.8 mphClear
9:00 AM71.6 °F59.0 °F64 %30.12 in6.2 miSouth (170°)6.9 mphPartly Cloudy
10:00 AM75.2 °F60.8 °F61 %30.12 in6.2 miSE (130°)5.8 mphPartly Cloudy
11:00 AM78.8 °F59.0 °F51 %30.12 in6.2 miESE (120°)4.6 mphScattered Clouds
12:00 PM78.8 °F60.8 °F54 %30.12 in6.2 miEast (80°)4.6 mphMostly Cloudy
1:00 PM80.6 °F57.2 °F45 %30.12 in6.2 miSE (140°)5.8 mphMostly Cloudy
2:00 PM84.2 °F57.2 °F40 %30.09 in6.2 miSE (130°)3.5 mphMostly Cloudy
3:00 PM82.4 °F55.4 °F39 %30.06 in6.2 miEast (80°)4.6 mphMostly Cloudy
4:00 PM84.2 °F53.6 °F35 %30.04 inNE (50°)3.5 mphClear
5:00 PM86.0 °F44.6 °F23 %30.01 in6.2 miESE (110°)4.6 mphScattered Clouds
6:00 PM86.0 °F48.2 °F27 %30.01 in6.2 miESE (120°)8.1 mphScattered Clouds
7:00 PM80.6 °F53.6 °F39 %30.04 in6.2 miSE (130°)8.1 mphPartly Cloudy
8:00 PM78.8 °F57.2 °F47 %30.04 in6.2 miSE (130°)4.6 mphPartly Cloudy
9:00 PM77.0 °F57.2 °F50 %30.06 in6.2 miSE (140°)4.6 mphPartly Cloudy
10:00 PM77.0 °F57.2 °F50 %30.09 in6.2 miSE (140°)4.6 mphThunderstormPartly Cloudy
11:00 PM73.4 °F59.0 °F61 %30.09 inSE (130°)3.5 mphClear
Hourly data recorded from SBLS, located miles away from Belo Horizonte, Minas Gerais







STORIES FROM OUR PARTNERS